FW2365 Weather Reports


Display with metric or nautical units.
time (UTC)temp
F
wind
direction
speed
MPH
gust
MPH
rain 1hr
in
rain 24hr
in
rain mn
in
humidity
%
barometer
mb
20260901170530 69 278 3.0 12.0 0.00 0.19 0.01 54 1024.6
20260901170030 70 304 7.0 12.0 0.00 0.19 0.01 54 1024.6
20260901165530 70 314 5.0 9.0 0.00 0.31 0.01 54 1024.6
20260901165030 69 289 4.0 9.0 0.00 0.31 0.01 56 1024.6
20260901164530 70 298 4.0 9.0 0.00 0.31 0.01 54 1024.5
20260901164030 69 314 2.0 8.0 0.00 0.31 0.01 55 1024.5
20260901163529 69 261 3.0 8.0 0.00 0.31 0.01 54 1024.5
20260901163032 69 277 4.0 8.0 0.00 0.31 0.01 54 1024.5
20260901162529 70 281 4.0 8.0 0.00 0.31 0.01 55 1024.5
20260901162028 70 285 4.0 8.0 0.00 0.31 0.01 54 1024.4
20260901161534 70 270 3.0 8.0 0.00 0.31 0.01 54 1024.4
20260901161030 69 274 4.0 8.0 0.00 0.31 0.01 54 1024.5
20260901160527 69 291 3.0 8.0 0.00 0.31 0.01 55 1024.4
20260901160031 69 293 1.0 8.0 0.00 0.31 0.01 56 1024.5
20260901155528 69 295 2.0 8.0 0.00 0.41 0.01 56 1024.4
20260901155030 69 264 1.0 4.0 0.00 0.41 0.01 58 1024.4
20260901154527 69 269 1.0 5.0 0.00 0.41 0.01 56 1024.5
20260901154028 69 274 1.0 4.0 0.00 0.41 0.01 58 1024.4
20260901153527 69 270 0.0 3.0 0.00 0.41 0.01 56 1024.5
20260901153032 69 264 0.0 6.0 0.00 0.41 0.01 56 1024.5
20260901152526 70 266 0.0 6.0 0.00 0.41 0.01 56 1024.5
20260901152128 70 276 1.0 4.0 0.00 0.41 0.01 56 1024.5
20260901151526 70 287 2.0 8.0 0.00 0.41 0.01 57 1024.5
20260901151026 70 332 2.0 8.0 0.00 0.41 0.01 56 1024.5
20260901150525 70 251 1.0 6.0 0.00 0.41 0.01 55 1024.5
20260901150026 70 299 3.0 8.0 0.00 0.41 0.01 55 1024.5
20260901145526 70 299 4.0 13.0 0.00 0.41 0.01 54 1024.5
20260901145025 70 276 6.0 14.0 0.00 0.41 0.01 53 1024.5
20260901144525 71 314 5.0 13.0 0.00 0.41 0.01 54 1024.5
20260901144024 71 314 5.0 10.0 0.00 0.41 0.01 54 1024.6
20260901143525 71 278 3.0 9.0 0.00 0.41 0.01 54 1024.5
20260901143024 70 286 4.0 9.0 0.00 0.41 0.01 55 1024.6
20260901142524 70 299 3.0 9.0 0.00 0.41 0.01 54 1024.6
20260901142023 70 299 2.0 11.0 0.00 0.41 0.01 54 1024.5
20260901141524 71 304 5.0 11.0 0.00 0.41 0.01 53 1024.5
20260901141030 71 275 4.0 9.0 0.00 0.41 0.01 54 1024.5
20260901140523 71 314 5.0 11.0 0.00 0.41 0.01 53 1024.5
20260901140038 71 283 5.0 11.0 0.00 0.41 0.01 54 1024.5
20260901135523 71 293 5.0 10.0 0.00 0.41 0.01 54 1024.4
20260901135022 71 314 4.0 9.0 0.00 0.41 0.01 53 1024.4
20260901134524 71 287 4.0 12.0 0.00 0.41 0.01 54 1024.5
20260901134023 71 309 6.0 14.0 0.00 0.41 0.01 52 1024.5
20260901133521 71 293 8.0 12.0 0.00 0.41 0.01 51 1024.6
20260901133020 71 282 7.0 12.0 0.00 0.41 0.01 53 1024.6
20260901132520 71 293 4.0 10.0 0.00 0.41 0.01 54 1024.7
20260901132020 71 304 3.0 9.0 0.00 0.41 0.01 54 1024.7
20260901131518 70 304 1.0 11.0 0.00 0.41 0.01 56 1024.8
20260901131019 70 273 4.0 11.0 0.00 0.41 0.01 54 1024.9
20260901130520 71 304 6.0 10.0 0.00 0.41 0.01 54 1025.0
20260901130034 71 270 1.0 8.0 0.00 0.41 0.01 57 1025.0
20260901125517 71 314 2.0 8.0 0.00 0.41 0.01 53 1025.0
20260901125017 72 304 1.0 9.0 0.00 0.41 0.01 56 1025.0
20260901124517 72 282 2.0 6.0 0.00 0.41 0.01 58 1025.0
20260901124015 71 304 2.0 7.0 0.00 0.41 0.01 56 1024.9
20260901123515 71 255 3.0 8.0 0.00 0.41 0.01 57 1025.0
20260901123020 71 320 4.0 8.0 0.00 0.41 0.01 57 1024.9
20260901122514 71 321 3.0 8.0 0.00 0.41 0.01 56 1025.0
20260901122013 70 322 5.0 10.0 0.00 0.41 0.01 56 1024.9
20260901121514 70 264 5.0 10.0 0.00 0.41 0.01 57 1025.0
20260901121015 70 295 0.0 12.0 0.00 0.41 0.01 57 1025.0
20260901120513 70 304 9.0 12.0 0.00 0.41 0.01 55 1025.0
20260901120020 71 309 2.0 8.0 0.00 0.41 0.01 55 1025.1
20260901115511 71 293 4.0 8.0 0.00 0.41 0.01 55 1025.1
20260901115012 71 318 3.0 9.0 0.00 0.41 0.01 56 1025.2
20260901114510 71 282 4.0 10.0 0.00 0.41 0.01 53 1025.2
20260901114008 71 309 4.0 10.0 0.00 0.41 0.01 55 1025.2
20260901113508 71 304 6.0 10.0 0.00 0.41 0.01 56 1025.2
20260901113008 71 328 5.0 9.0 0.00 0.41 0.01 59 1025.3
20260901112506 70 320 4.0 9.0 0.00 0.41 0.01 56 1025.3
20260901112006 70 265 5.0 10.0 0.00 0.41 0.01 57 1025.3
20260901111505 70 309 5.0 8.0 0.00 0.41 0.01 57 1025.3
20260901111004 70 314 4.0 9.0 0.00 0.41 0.01 58 1025.3
20260901110507 70 304 4.0 10.0 0.00 0.41 0.01 60 1025.4
20260901110003 70 275 0.0 10.0 0.00 0.41 0.01 58 1025.4
20260901105502 70 304 4.0 7.0 0.00 0.41 0.01 63 1025.3
20260901105104 69 309 1.0 6.0 0.00 0.41 0.01 60 1025.4
20260901104559 69 331 0.0 4.0 0.00 0.41 0.01 68 1025.4
20260901104058 69 332 0.0 4.0 0.00 0.41 0.01 63 1025.4
20260901103555 68 332 0.0 4.0 0.00 0.41 0.01 63 1025.4
20260901103055 68 304 0.0 5.0 0.00 0.41 0.01 64 1025.5
20260901102554 68 304 4.0 5.0 0.00 0.41 0.01 66 1025.5
20260901102053 67 297 1.0 5.0 0.00 0.41 0.01 68 1025.5
20260901101551 67 296 3.0 6.0 0.00 0.41 0.01 72 1025.6
20260901101051 66 320 3.0 6.0 0.00 0.41 0.01 72 1025.6
20260901100549 66 309 3.0 8.0 0.00 0.41 0.01 75 1025.7
20260901100048 66 299 4.0 8.0 0.00 0.41 0.01 73 1025.7
20260901095547 65 309 5.0 8.0 0.00 0.41 0.01 74 1025.7
20260901095046 65 304 5.0 9.0 0.00 0.41 0.01 74 1025.8
20260901094550 65 304 4.0 9.0 0.00 0.41 0.01 74 1025.8
20260901094044 65 309 3.0 6.0 0.00 0.41 0.01 76 1025.9
20260901093545 65 304 3.0 5.0 0.00 0.41 0.01 76 1025.9
20260901093043 65 309 3.0 6.0 0.00 0.41 0.01 76 1025.9
20260901092543 65 309 2.0 6.0 0.00 0.41 0.01 76 1026.0
20260901092043 65 304 2.0 4.0 0.00 0.41 0.01 77 1026.0
20260901091541 65 324 1.0 3.0 0.00 0.41 0.01 78 1026.1
20260901091040 64 324 0.0 1.0 0.00 0.41 0.01 76 1026.0
20260901090541 64 324 0.0 2.0 0.00 0.41 0.01 80 1026.1
20260901090037 64 324 0.0 3.0 0.00 0.41 0.01 79 1026.1
20260901085536 63 324 2.0 3.0 0.00 0.41 0.01 79 1026.1
20260901085035 63 90 0.0 3.0 0.00 0.41 0.01 82 1026.2
20260901084534 63 96 0.0 3.0 0.00 0.41 0.01 80 1026.2
20260901084033 62 309 0.0 2.0 0.00 0.41 0.01 84 1026.2
20260901083531 61 309 0.0 3.0 0.00 0.41 0.01 84 1026.2
20260901083030 61 309 1.0 4.0 0.00 0.41 0.01 84 1026.3
20260901082528 61 309 0.0 4.0 0.00 0.41 0.01 85 1026.3
20260901082026 60 309 2.0 4.0 0.00 0.41 0.01 85 1026.4
20260901081525 60 309 3.0 5.0 0.00 0.41 0.01 87 1026.4
20260901081024 60 309 3.0 5.0 0.00 0.41 0.01 86 1026.3
20260901080525 60 304 2.0 5.0 0.00 0.41 0.01 87 1026.3
20260901080022 60 304 3.0 5.0 0.00 0.41 0.01 85 1026.3
20260901075521 60 304 2.0 4.0 0.00 0.41 0.01 87 1026.4
20260901075020 60 154 0.0 1.0 0.00 0.41 0.01 88 1026.5
20260901074519 60 154 0.0 1.0 0.00 0.41 0.01 88 1026.4
20260901074017 60 154 0.0 0.0 0.00 0.41 0.01 91 1026.4
20260901073516 59 154 0.0 0.0 0.00 0.41 0.01 92 1026.5
20260901073015 59 154 0.0 0.0 0.00 0.41 0.01 93 1026.5
20260901072513 58 154 0.0 0.0 0.00 0.41 0.01 94 1026.5
20260901072011 57 154 0.0 0.0 0.00 0.41 0.01 94 1026.6
20260901071520 57 154 0.0 0.0 0.00 0.41 0.01 94 1026.6
20260901071009 56 154 0.0 0.0 0.00 0.41 0.01 96 1026.6
20260901070509 55 154 0.0 0.0 0.00 0.41 0.01 96 1026.6
20260901070019 55 154 0.0 0.0 0.00 0.41 0.01 96 1026.7
20260901065507 54 154 0.0 0.0 0.00 0.41 0.01 96 1026.8
20260901065008 54 154 0.0 0.0 0.00 0.41 0.01 96 1026.7
20260901064508 54 154 0.0 0.0 0.00 0.41 0.01 96 1026.7
20260901064007 54 154 0.0 0.0 0.00 0.41 0.01 96 1026.7
20260901063508 54 154 0.0 0.0 0.00 0.41 0.01 96 1026.7
20260901063005 54 154 0.0 0.0 0.00 0.41 0.01 97 1026.7
20260901062505 54 154 0.0 0.0 0.00 0.41 0.01 97 1026.7
20260901062105 54 154 0.0 0.0 0.00 0.41 0.01 97 1026.8
20260901061505 54 154 0.0 0.0 0.00 0.41 0.01 97 1026.8
20260901061003 53 154 0.0 0.0 0.00 0.41 0.01 97 1026.8
20260901060502 53 154 0.0 0.0 0.00 0.41 0.01 97 1026.7
20260901060002 53 154 0.0 0.0 0.00 0.41 0.01 96 1026.7
20260901055502 53 154 0.0 0.0 0.00 0.41 0.01 96 1026.7
20260901055002 53 154 0.0 0.0 0.00 0.41 0.01 97 1026.7
20260901054505 53 154 0.0 0.0 0.00 0.41 0.01 97 1026.6
20260901054100 53 154 0.0 0.0 0.00 0.41 0.01 97 1026.6
20260901053602 53 154 0.0 2.0 0.00 0.41 0.01 97 1026.6
20260901053121 53 154 0.0 2.0 0.00 0.41 0.01 97 1026.6
20260901052558 53 154 0.0 0.0 0.00 0.41 0.01 96 1026.6
20260901052058 53 154 0.0 0.0 0.00 0.41 0.01 97 1026.7
20260901051609 53 154 0.0 0.0 0.00 0.41 0.01 97 1026.6
20260901051056 53 154 0.0 2.0 0.00 0.41 0.01 97 1026.4
20260901050559 53 154 0.0 2.0 0.00 0.41 0.01 97 1026.4
20260901050056 53 154 0.0 2.0 0.00 0.41 0.01 96 1026.4
20260901045556 53 154 0.0 2.0 0.00 0.43 0.01 96 1026.3
20260901045153 53 154 0.0 0.0 0.00 0.43 0.01 96 1026.3
20260901044605 53 154 0.0 0.0 0.00 0.43 0.01 96 1026.2
20260901044052 53 154 0.0 0.0 0.00 0.43 0.01 96 1026.2
20260901043550 53 154 0.0 0.0 0.00 0.43 0.01 96 1026.1
20260901043051 53 154 0.0 0.0 0.00 0.43 0.01 96 1026.1
20260901042554 53 154 0.0 0.0 0.00 0.43 0.01 96 1026.0
20260901042049 53 154 0.0 0.0 0.00 0.43 0.01 96 1026.1
20260901041549 53 154 0.0 0.0 0.01 0.43 0.01 96 1026.1
20260901041049 53 154 0.0 0.0 0.01 0.43 0.01 96 1026.2
20260901040549 54 154 0.0 0.0 0.01 0.43 0.01 96 1026.1
20260901040107 54 154 0.0 0.0 0.01 0.43 0.01 96 1026.1
20260901035551 54 154 0.0 2.0 0.01 0.52 0.01 96 1026.1
20260901035047 54 154 0.0 2.0 0.01 0.52 0.01 96 1026.1
20260901034604 54 154 0.0 4.0 0.01 0.52 0.01 96 1026.1
20260901034048 54 154 1.0 4.0 0.01 0.52 0.01 96 1026.1
20260901033547 54 154 1.0 3.0 0.01 0.52 0.01 96 1026.0
20260901033047 54 154 1.0 3.0 0.01 0.52 0.01 96 1026.1
20260901032546 54 154 1.0 3.0 0.01 0.52 0.01 96 1026.1
20260901032052 54 154 0.0 0.0 0.00 0.51 0.00 96 1026.0
20260901031546 54 154 0.0 0.0 0.00 0.51 0.00 96 1026.1
20260901031045 54 154 0.0 0.0 0.00 0.51 0.00 95 1026.1
20260901030544 54 154 0.0 0.0 0.00 0.51 0.00 95 1026.1
20260901030044 54 154 0.0 0.0 0.00 0.51 0.00 96 1026.1
20260901025546 54 154 0.0 2.0 0.00 0.56 0.00 96 1026.1
20260901025044 54 154 0.0 3.0 0.00 0.56 0.00 96 1026.1
20260901024551 54 154 0.0 3.0 0.00 0.56 0.00 96 1026.1
20260901024043 54 154 0.0 4.0 0.00 0.56 0.00 96 1026.1
20260901023542 54 154 1.0 4.0 0.00 0.56 0.00 96 1026.1
20260901023057 55 154 0.0 2.0 0.00 0.56 0.00 95 1026.1
20260901022542 55 154 0.0 0.0 0.00 0.56 0.00 95 1026.1
20260901022043 55 154 0.0 0.0 0.00 0.56 0.00 95 1026.1
20260901021541 55 154 0.0 0.0 0.00 0.56 0.00 95 1026.2
20260901021040 55 154 0.0 0.0 0.00 0.56 0.00 95 1026.2
20260901020540 55 154 0.0 2.0 0.00 0.56 0.00 95 1026.1
20260901020044 55 154 0.0 2.0 0.00 0.56 0.00 95 1026.0
20260901015539 55 154 0.0 3.0 0.00 0.61 0.00 95 1026.1
20260901015039 55 154 0.0 3.0 0.00 0.61 0.00 95 1026.1
20260901014550 55 154 0.0 0.0 0.00 0.61 0.00 95 1026.1
20260901014038 55 154 0.0 3.0 0.00 0.61 0.00 96 1026.1
20260901013538 55 154 0.0 3.0 0.00 0.61 0.00 96 1026.1
20260901013038 55 154 1.0 3.0 0.00 0.61 0.00 96 1026.1
20260901012540 55 154 0.0 0.0 0.00 0.61 0.00 96 1026.1
20260901012037 55 154 0.0 1.0 0.00 0.61 0.00 96 1026.0
20260901011537 55 154 0.0 2.0 0.00 0.61 0.00 96 1026.0
20260901011037 55 154 1.0 3.0 0.00 0.61 0.00 96 1026.0
20260901010537 55 154 0.0 3.0 0.00 0.61 0.00 95 1026.0
20260901010036 55 154 0.0 3.0 0.00 0.61 0.00 96 1026.0
20260901005535 56 154 0.0 3.0 0.00 0.61 0.00 95 1026.0
20260901005035 56 154 0.0 3.0 0.00 0.61 0.00 96 1026.0
20260901004536 56 154 0.0 3.0 0.00 0.61 0.00 96 1026.0
20260901004034 56 154 1.0 3.0 0.00 0.61 0.00 96 1026.0
20260901003534 56 154 0.0 0.0 0.00 0.61 0.00 96 1026.0
20260901003033 56 154 0.0 0.0 0.00 0.61 0.00 95 1026.0
20260901002535 56 154 0.0 0.0 0.00 0.61 0.00 95 1025.9
20260901002032 56 154 0.0 0.0 0.00 0.61 0.00 95 1025.9
20260901001532 56 154 0.0 0.0 0.00 0.61 0.00 95 1025.9
20260901001031 56 154 0.0 0.0 0.00 0.61 0.00 95 1025.9
20260901000531 56 154 0.0 2.0 0.00 0.61 0.00 95 1025.9
20260901000031 56 154 0.0 2.0 0.00 0.61 0.00 95 1025.8
20260831235530 56 154 0.0 2.0 0.00 0.65 0.00 96 1025.8
20260831235030 56 154 1.0 2.0 0.00 0.65 0.00 95 1025.8
20260831234529 56 154 0.0 0.0 0.00 0.65 0.00 95 1025.7
20260831234028 56 154 0.0 0.0 0.00 0.65 0.00 95 1025.7
20260831233528 56 154 0.0 0.0 0.00 0.65 0.00 95 1025.7
20260831233027 56 154 0.0 0.0 0.00 0.65 0.00 95 1025.7
20260831232529 57 154 0.0 0.0 0.00 0.65 0.00 95 1025.7
20260831232026 57 154 0.0 0.0 0.00 0.65 0.00 95 1025.6
20260831231526 57 154 0.0 0.0 0.00 0.65 0.00 95 1025.5
20260831231026 57 154 0.0 0.0 0.00 0.65 0.00 95 1025.5
20260831230528 57 154 0.0 0.0 0.00 0.65 0.00 95 1025.5
20260831230025 57 154 0.0 0.0 0.00 0.65 0.00 95 1025.5
20260831225524 57 154 0.0 0.0 0.00 0.80 0.00 95 1025.5
20260831225025 57 154 0.0 0.0 0.00 0.80 0.00 95 1025.5
20260831224525 57 154 0.0 0.0 0.00 0.80 0.00 95 1025.5
20260831224024 57 154 0.0 0.0 0.00 0.80 0.00 95 1025.6
20260831223524 57 154 0.0 2.0 0.00 0.80 0.00 95 1025.6
20260831223026 57 154 0.0 2.0 0.00 0.80 0.00 95 1025.6
20260831222522 57 154 0.0 3.0 0.00 0.80 0.00 95 1025.4
20260831222022 57 154 0.0 3.0 0.00 0.80 0.00 95 1025.4
20260831221523 57 154 0.0 0.0 0.00 0.80 0.00 94 1025.3
20260831221020 57 154 0.0 1.0 0.00 0.80 0.00 94 1025.1
20260831220520 57 154 0.0 2.0 0.00 0.80 0.00 94 1025.1
20260831220019 57 154 0.0 2.0 0.00 0.80 0.00 94 1025.2
20260831215519 57 154 0.0 2.0 0.00 0.80 0.80 94 1025.1
20260831215019 57 154 0.0 2.0 0.00 0.80 0.80 94 1025.2
20260831214518 57 154 0.0 2.0 0.00 0.80 0.80 94 1025.2
20260831214017 57 154 0.0 3.0 0.00 0.80 0.80 94 1025.2
20260831213517 57 154 0.0 3.0 0.00 0.80 0.80 94 1025.3
20260831213017 57 154 0.0 0.0 0.00 0.80 0.80 94 1025.4
20260831212517 57 154 0.0 0.0 0.00 0.80 0.80 93 1025.4
20260831212016 58 154 0.0 0.0 0.00 0.80 0.80 93 1025.3
20260831211515 58 154 0.0 0.0 0.00 0.80 0.80 93 1025.1
20260831211014 58 154 0.0 0.0 0.00 0.80 0.80 93 1025.0
20260831210514 58 154 0.0 0.0 0.00 0.80 0.80 93 1025.0
20260831210013 58 154 0.0 2.0 0.00 0.80 0.80 93 1024.9
20260831205513 58 154 0.0 2.0 0.00 0.80 0.80 93 1024.8
20260831205012 58 154 1.0 3.0 0.00 0.80 0.80 93 1024.7
20260831204512 58 154 0.0 3.0 0.00 0.80 0.80 93 1024.7
20260831204010 58 154 0.0 0.0 0.00 0.80 0.80 93 1024.6
20260831203511 58 154 0.0 0.0 0.00 0.80 0.80 93 1024.5
20260831203010 58 154 0.0 0.0 0.00 0.80 0.80 93 1024.4
20260831202508 58 154 0.0 2.0 0.00 0.80 0.80 93 1024.3
20260831202010 58 154 0.0 2.0 0.00 0.80 0.80 93 1024.3
20260831201511 58 154 0.0 2.0 0.00 0.80 0.80 93 1024.3
20260831201008 58 154 0.0 2.0 0.00 0.80 0.80 93 1024.2
20260831200507 58 154 0.0 0.0 0.00 0.80 0.80 93 1024.2
20260831200015 58 154 0.0 0.0 0.00 0.80 0.80 93 1024.1
20260831195507 58 154 0.0 1.0 0.00 0.80 0.80 94 1024.2
20260831195006 58 154 0.0 3.0 0.00 0.80 0.80 94 1024.1
20260831194506 58 154 1.0 3.0 0.00 0.80 0.80 94 1024.0
20260831194005 58 154 1.0 3.0 0.00 0.80 0.80 94 1024.1
20260831193505 58 154 0.0 0.0 0.00 0.80 0.80 94 1024.0
20260831193003 58 154 0.0 0.0 0.00 0.80 0.80 94 1023.9
20260831192502 58 154 0.0 0.0 0.00 0.80 0.80 94 1023.8
20260831192007 58 154 0.0 0.0 0.02 0.80 0.80 94 1023.7
20260831191502 58 154 0.0 0.0 0.06 0.80 0.80 94 1023.8
20260831191105 58 153 0.0 3.0 0.06 0.80 0.80 93 1023.7
20260831190502 58 153 1.0 7.0 0.06 0.80 0.80 93 1023.5
20260831190110 58 153 3.0 7.0 0.06 0.80 0.80 94 1023.5
20260831185601 58 164 2.0 5.0 0.06 0.80 0.80 93 1023.5
20260831185059 58 163 1.0 5.0 0.06 0.80 0.80 93 1023.5
20260831184604 58 177 1.0 5.0 0.07 0.80 0.80 93 1023.3
20260831184102 58 160 1.0 5.0 0.07 0.80 0.80 94 1023.3
20260831183558 58 138 1.0 5.0 0.07 0.80 0.80 93 1023.3
20260831183058 58 304 0.0 0.0 0.07 0.80 0.80 93 1023.2
20260831182558 58 304 0.0 5.0 0.09 0.80 0.80 93 1023.2
20260831182058 58 309 1.0 6.0 0.12 0.78 0.78 91 1023.2
20260831181600 58 124 1.0 4.0 0.13 0.75 0.75 90 1023.3
20260831181058 58 210 0.0 3.0 0.12 0.73 0.73 91 1022.8
20260831180554 59 280 1.0 3.0 0.12 0.73 0.73 90 1022.3
20260831180054 59 243 0.0 0.0 0.12 0.73 0.73 91 1022.1
20260831175552 59 243 0.0 2.0 0.12 0.73 0.73 91 1022.2
20260831175052 59 243 0.0 2.0 0.12 0.73 0.73 91 1022.0
20260831174551 59 243 0.0 2.0 0.11 0.72 0.72 90 1021.8
20260831174053 59 178 0.0 2.0 0.11 0.72 0.72 89 1021.5
20260831173548 59 178 0.0 3.0 0.11 0.72 0.72 87 1021.3
20260831173048 60 161 1.0 5.0 0.11 0.72 0.72 88 1021.5
20260831172647 60 14 0.0 5.0 0.10 0.72 0.72 87 1021.6
20260831172050 60 271 3.0 5.0 0.03 0.65 0.65 85 1021.7
20260831171545 60 257 0.0 0.0 0.00 0.61 0.61 83 1021.5
20260831171043 60 257 0.0 2.0 0.00 0.61 0.61 84 1021.4